Regional Weather Roundup
Issued by NWS

Home | Current Version | Previous Version | Text Only | Print | Product List | Glossary On
Versions: 1 2 3 4 5 6 7 8 9 10 11 12 13 14 15 16 17 18 19 20 21 22 23 24 25 26 27 28 29 30 31 32 33 34 35 36 37 38 39 40 41 42 43 44 45 46 47 48 49 50
000
ASUS42 KKEY 290510
RWRKEY

FLORIDA REGIONAL WEATHER ROUNDUP FOR THE FLORIDA KEYS
NATIONAL WEATHER SERVICE KEY WEST FLORIDA
100 AM EDT FRI AUG 29 2014

...SOUTH FLORIDA AND THE KEYS...

CITY           SKY/WX    TMP DP  RH WIND       PRES   REMARKS
FORT MYERS     CLOUDY    77  77 100 SE3       30.01S
SW REGIONAL AP CLOUDY    77  75  93 E3        30.02S
NAPLES         MOCLDY    80  78  94 E5        30.01R
MIAMI          PTCLDY    84  75  74 SE3       30.02F HX  92
WEST KENDALL   PTCLDY    82  75  79 E3        30.02F
HOMESTEAD      PTCLDY    81  76  83 E6        30.02F
MARATHON       PTCLDY    85  78  80 SE8       30.01S HX  96
BOCA CHICA NAS PTCLDY    85  76  74 SE12      30.01S HX  94
KEY WEST INTL  PTCLDY    86  76  71 SE13      30.01S HX  96

...INTERNATIONAL WEATHER...

CITY           SKY/WX    TMP DP  RH WIND       PRES   REMARKS
NASSAU BAHAMAS NOT AVBL
CANCUN MEXICO  PTCLDY    84  77  79 SE12      29.95S HX  94
COZUMEL MEXICO LGT RAIN  75  73  94 SE6       29.95R

ADJACENT COASTAL WATERS...

STATION/POSITION TIME  SKY/WX   TEMP    WIND        PRES    WAVE
                                AIR SEA DIR/SP/G            HT/PER
                 (UTC)          (F)     (DEG/KT/KT) (MB)    (FT/S)
PULASKI SHOAL LI 0500            84     170/ 13/ 14 1015.9R
SAND KEY         0500            84     140/ 12/ 16 1015.8F
SOMBRERO KEY     0500            85     130/ 13/ 14 1017.1R
LONG KEY         0400            85 88  160/ 10/ 11 1017.1F
MOLASSES REEF    0500            85 87  110/ 12/ 13 1016.5S
FOWEY ROCKS      0500            85 87  140/  9/  9 1016.9F
Buoy 42080       NOT AVBL

$$



USA.gov is the U.S. government's official web portal to all federal, state and local government web resources and services.